| Date | Time | Temp. (oF) | Dew Point (oF) | Rel. Hum. (%) | Press. (in.) | Wind Dir. | Wind Speed (mph) | Hourly Rainfall (in.) |
|
|---|---|---|---|---|---|---|---|---|---|
| 1 | 02/04 | 00:00 | 29 | 28 | 100 | 30.22 | WNW | 3 | 0.00 |
| 2 | 02/03 | 23:00 | 29 | 28 | 100 | 30.23 | W | 1 | 0.00 |
| 3 | 02/03 | 22:00 | 29 | 28 | 100 | 30.24 | WNW | 2 | 0.00 |
| 4 | 02/03 | 21:00 | 29 | 28 | 99 | 30.25 | WNW | 2 | 0.00 |
| 5 | 02/03 | 20:00 | 29 | 28 | 96 | 30.24 | N | 3 | 0.01 |
| 6 | 02/03 | 19:00 | 31 | 28 | 91 | 30.25 | NNW | 1 | 0.01 |
| 7 | 02/03 | 18:00 | 33 | 25 | 74 | 30.24 | SW | 4 | 0.00 |
| 8 | 02/03 | 17:00 | 34 | 26 | 73 | 30.21 | N | 4 | 0.00 |
| 9 | 02/03 | 16:00 | 33 | 25 | 75 | 30.22 | NW | 0 | 0.00 |
| 10 | 02/03 | 15:00 | 34 | 23 | 66 | 30.24 | S | 2 | 0.00 |
| 11 | 02/03 | 14:00 | 33 | 23 | 69 | 30.26 | S | 0 | 0.00 |
| 12 | 02/03 | 13:00 | 34 | 23 | 65 | 30.26 | NW | 2 | 0.00 |
| 13 | 02/03 | 12:00 | 35 | 24 | 65 | 30.30 | NE | 2 | 0.00 |
| 14 | 02/03 | 11:00 | 32 | 23 | 70 | 30.33 | E | 3 | 0.00 |
| 15 | 02/03 | 10:00 | 28 | 24 | 85 | 30.33 | ENE | 5 | 0.00 |
| 16 | 02/03 | 09:00 | 24 | 22 | 92 | 30.36 | SW | 1 | 0.00 |
| 17 | 02/03 | 08:00 | 22 | 20 | 92 | 30.37 | SSW | 1 | 0.00 |
| 18 | 02/03 | 07:00 | 21 | 18 | 91 | 30.37 | SW | 0 | 0.00 |
| 19 | 02/03 | 06:00 | 22 | 19 | 90 | 30.37 | SW | 2 | 0.00 |
| 20 | 02/03 | 05:00 | 22 | 19 | 89 | 30.37 | E | 0 | 0.00 |
| 21 | 02/03 | 04:00 | 22 | 19 | 90 | 30.39 | S | 2 | 0.00 |
| 22 | 02/03 | 03:00 | 21 | 18 | 90 | 30.37 | E | 3 | 0.00 |
| 23 | 02/03 | 02:00 | 22 | 18 | 88 | 30.40 | W | 1 | 0.00 |
| 24 | 02/03 | 01:00 | 22 | 18 | 86 | 30.42 | NW | 0 | 0.00 |